Tiempo atmosférico en la estación meteorológica de Las Palmas de Gran Canaria, Tafira, Las Palmas (269 m.)



Fecha
DESCASC
Temp. máxima en grados centígrados (hora)
DESCASC
Temp. mínima en grados centígrados (hora)
DESCASC
Temp. media en grados centígrados
DESCASC
Racha de viento máxima en m/sg (hora)
DESCASC
Velocidad máxima media en intervalos de 10 minutos(hora)
DESCASC
Precipitaciones diarias en mm
DESCASC
Precipitaciones de 00:00 a 06:00 en mm
DESCASC
Precipitaciones de 06:00 a 12:00 en mm
DESCASC
Precipitaciones de 12:00 a 18:00 en mm
DESCASC
Precipitaciones de 18:00 a 24:00 en mm
DESCASC
19-01-2020 20.1 (13:20) 13.1 (05:00) 16.6 6.11 (07:30) 3.33 (06:30) 0.2 0 0 0 0.2
18-01-2020 19.3 (11:50) 12.1 (01:30) 15.7 8.89 (11:10) 4.72 (13:10) 0 0 0 0 0
17-01-2020 19 (14:40) 10.5 (07:00) 14.8 8.33 (12:20) 4.44 (12:50) 0 0 0 0 0
16-01-2020 19.3 (12:30) 11.5 (00:00) 15.4 6.39 (13:10) 3.61 (12:00) 0 0 0 0 0
15-01-2020 19.1 (13:20) 11.7 (00:00) 15.4 9.17 (15:20) 4.72 (14:10) 0 0 0 0 0
14-01-2020 20.2 (13:50) 13 (00:00) 16.6 10.28 (14:50) 5.56 (14:50) 0 0 0 0 0
13-01-2020 20.2 (14:10) 11.9 (00:00) 16.1 12.5 (13:40) 6.11 (13:30) 0 0 0 0 0
12-01-2020 17.6 (13:40) 12.5 (00:00) 15.1 7.5 (14:20) 4.17 (14:30) 0 0 0 0 0
11-01-2020 16.7 (13:50) 14.4 (00:00) 15.6 8.33 (14:30) 4.44 (14:30) 0.2 0.2 0 0 0
10-01-2020 17.8 (14:00) 14.8 (00:00) 16.3 7.78 (09:00) 3.33 (11:40) 1.4 0.2 0.8 0.2 0.2
09-01-2020 18.2 (14:00) 13.7 (00:00) 16 8.06 (13:50) 4.44 (15:50) 0.2 0 0 0 0.2
08-01-2020 17.6 (12:20) 14.3 (00:00) 16 7.22 (10:50) 3.89 (10:50) 0 0 0 0 0
07-01-2020 17.8 (13:10) 14.3 (00:00) 16 9.72 (01:00) 3.61 (10:50) 0.8 0.8 0 0 0
06-01-2020 18 (13:40) 14.3 (00:00) 16.2 10 (20:30) 5.83 (20:30) 0 0 0 0 0
05-01-2020 18.9 (13:20) 13.2 (00:00) 16 5 (13:20) 2.5 (08:00) 0 0 0 0 0
04-01-2020 18.4 (13:10) 12 (00:00) 15.2 6.39 (14:00) 3.89 (13:40) 0 0 0 0 0
03-01-2020 17.7 (15:30) 13.4 (00:00) 15.6 9.72 (10:50) 5 (11:50) 0 0 0 0 0
02-01-2020 17 (12:30) 13.4 (00:00) 15.2 11.39 (05:20) 6.11 (11:50) 0 0 0 0 0
01-01-2020 17.6 (11:50) 13.5 (00:00) 15.6 11.39 (12:30) 5.56 (12:40) 0 0 0 0 0
31-12-2019 19.6 (15:40) 12.3 (00:00) 16 8.89 (11:00) 4.72 (11:30) 0 0 0 0 0
30-12-2019 -- (--) -- (--) -- -- (--) -- (--) -- 0 0 -- 0
29-12-2019 22.3 (14:00) 17.3 (00:00) 19.8 8.61 (12:20) 4.72 (12:20) 0 0 0 0 0
28-12-2019 23.3 (14:00) 17.4 (00:00) 20.3 9.44 (11:00) 5 (10:10) 0 0 0 0 0
27-12-2019 23.3 (14:30) 15.1 (00:00) 19.2 8.33 (10:30) 4.72 (11:10) 0 0 0 0 0
26-12-2019 21.4 (16:30) 14.9 (00:00) 18.1 6.39 (06:20) 3.33 (15:40) 0 0 0 0 0
25-12-2019 21.9 (10:50) 17.3 (00:00) 19.6 9.44 (17:50) 5.56 (17:50) 0 0 0 0 0
24-12-2019 26.3 (14:50) 16.6 (00:00) 21.4 9.72 (14:20) 5.28 (14:30) 0 0 0 0 0
23-12-2019 20.3 (13:50) 15 (00:00) 17.6 5.56 (20:30) 3.33 (20:30) 0 0 0 0 0
22-12-2019 19.9 (13:40) 15.9 (00:00) 17.9 6.39 (23:50) 2.5 (23:50) 0 0 0 0 0

Gráficas

Temp. máximas Temp. mínimas Temp. medias Precipitaciones Rachas de viento máximas Velocidades máximas media en intervalos de 10 minutos

Datos horarios

Fecha y hora oficial Temperatura (ºC) Velocidad del viento (km/h) Dirección del viento Racha (km/h) Dirección de racha Precipitación (mm) Presión (hPa) Tendencia (hPa) Humedad (%)
2020-01-20 23:00:00 12.7 7 Oeste 39 Noroeste 0 -- -- 85
2020-01-20 22:00:00 14.9 15 Noroeste 30 Noroeste 0 -- -- 67
2020-01-20 21:00:00 14.6 14 Noroeste 40 Noroeste 0 -- -- 68
2020-01-20 20:00:00 14.6 16 Noroeste 36 Noroeste 0 -- -- 63
2020-01-20 19:00:00 14.9 14 Noroeste 31 Norte 0 -- -- 66
2020-01-20 18:00:00 15 18 Noroeste 33 Noroeste 0 -- -- 69
2020-01-20 17:00:00 15.3 18 Noroeste 32 Noroeste 0 -- -- 70
2020-01-20 16:00:00 15.6 17 Noroeste 37 Noroeste 0 -- -- 71
2020-01-20 15:00:00 16.3 20 Noroeste 31 Noroeste 0 -- -- 65
2020-01-20 14:00:00 16.2 14 Noroeste 40 Noroeste 0 -- -- 67
2020-01-20 13:00:00 16.3 19 Noroeste 35 Oeste 0 -- -- 67
2020-01-20 12:00:00 14.7 15 Noroeste 30 Noroeste 0 -- -- 79
2020-01-20 11:00:00 14.1 11 Noroeste 26 Oeste 0 -- -- 86
2020-01-20 10:00:00 14.6 13 Noroeste 33 Noroeste 0 -- -- 71
2020-01-20 09:00:00 13.7 11 Noroeste 29 Oeste 0 -- -- 82
2020-01-20 08:00:00 14.2 15 Noroeste 34 Noroeste 0 -- -- 69
2020-01-20 07:00:00 14.5 16 Noroeste 36 Noroeste 0 -- -- 68
2020-01-20 06:00:00 14.5 18 Noroeste 31 Noroeste 0 -- -- 70
2020-01-20 05:00:00 14.9 15 Noroeste 33 Norte 0 -- -- 74
2020-01-20 04:00:00 14.9 17 Noroeste 27 Noroeste 0 -- -- 75
2020-01-20 03:00:00 15.1 16 Noroeste 26 Noroeste 0 -- -- 84
2020-01-20 02:00:00 15 12 Noroeste 21 Noroeste 0 -- -- 85
2020-01-20 01:00:00 15.2 9 Noroeste 23 Norte 0.2 -- -- 93
2020-01-20 00:00:00 15.3 8 Noroeste 20 Noroeste 0.2 -- -- 91
2020-01-19 23:00:00 15.9 7 Noroeste 15 Noroeste 0 -- -- 88
2020-01-19 22:00:00 15.6 6 Noroeste 13 Noroeste 0 -- -- 85
2020-01-19 21:00:00 15.7 4 Norte 14 Norte 0 -- -- 84
2020-01-19 20:00:00 16 5 Norte 10 Noroeste 0 -- -- 86
2020-01-19 19:00:00 16 3 Norte 13 Nordeste 0 -- -- 83
2020-01-19 18:00:00 16.4 4 Nordeste 12 Nordeste 0 -- -- 77
2020-01-19 17:00:00 17.7 6 Nordeste 15 Nordeste 0 -- -- 72
2020-01-19 16:00:00 18.7 8 Nordeste 15 Nordeste 0 -- -- 71
2020-01-19 15:00:00 19.2 6 Nordeste 17 Nordeste 0 -- -- 46
2020-01-19 14:00:00 18.7 9 Nordeste 17 Nordeste 0 -- -- 64
2020-01-19 13:00:00 19.7 7 Nordeste 13 Nordeste 0 -- -- 56
2020-01-19 12:00:00 19.5 6 Este 13 Este 0 -- -- 51
2020-01-19 11:00:00 19 8 Este 13 Nordeste 0 -- -- 49
2020-01-19 10:00:00 18.2 5 Este 12 Sudeste 0 -- -- 49
2020-01-19 09:00:00 15 3 Sudeste 15 Sur 0 -- -- 56
2020-01-19 08:00:00 14.3 9 Sur 22 Sur 0 -- -- 30
2020-01-19 07:00:00 13.9 10 Sur 19 Sur 0 -- -- 32
2020-01-19 06:00:00 13.4 9 Sur 16 Sur 0 -- -- 36
2020-01-19 05:00:00 13.1 7 Sur 12 Sur 0 -- -- 40
2020-01-19 04:00:00 13.3 8 Sur 12 Sur 0 -- -- 44
2020-01-19 03:00:00 13.3 5 Sur 15 Sudeste 0 -- -- 48
2020-01-19 02:00:00 14.2 5 Sur 12 Sur 0 -- -- 52
2020-01-19 01:00:00 13.8 8 Sur 12 Sur 0 -- -- 53
2020-01-19 00:00:00 13.5 6 Sur 15 Sur 0 -- -- 50
2020-01-18 23:00:00 13.7 9 Sur 14 Sur 0 -- -- 48
2020-01-18 22:00:00 13.9 6 Sur 12 Sur 0 -- -- 38
2020-01-18 21:00:00 14.2 7 Sur 12 Sur 0 -- -- 36
2020-01-18 20:00:00 13.9 3 Sudeste 5 Sudeste 0 -- -- 43
2020-01-18 19:00:00 15.8 2 Sudeste 10 Este 0 -- -- 41
2020-01-18 18:00:00 16.8 5 Sudeste 15 Este 0 -- -- 59
2020-01-18 17:00:00 17.8 10 Este 21 Sudeste 0 -- -- 54
2020-01-18 16:00:00 18.5 11 Este 24 Este 0 -- -- 50
2020-01-18 15:00:00 18.5 14 Este 27 Este 0 -- -- 57
2020-01-18 14:00:00 18.8 15 Este 29 Este 0 -- -- 50
2020-01-18 13:00:00 19.1 14 Este 31 Este 0 -- -- 50
2020-01-18 12:00:00 19.3 13 Sudeste 32 Sudeste 0 -- -- 49
2020-01-18 11:00:00 19.2 14 Sudeste 28 Sudeste 0 -- -- 35
2020-01-18 10:00:00 18.4 11 Sudeste 28 Sudeste 0 -- -- 35
2020-01-18 09:00:00 16.8 12 Sudeste 25 Sudeste 0 -- -- 41
2020-01-18 08:00:00 15.4 9 Sudeste 19 Sudeste 0 -- -- 46
2020-01-18 07:00:00 14.5 8 Sur 15 Sur 0 -- -- 49
2020-01-18 06:00:00 13.4 5 Sudeste 11 Sudeste 0 -- -- 41
2020-01-18 05:00:00 13.9 6 Sudeste 11 Sudeste 0 -- -- 65
2020-01-18 04:00:00 14.1 7 Sudeste 13 Sudeste 0 -- -- 69
2020-01-18 03:00:00 13.6 6 Sudeste 14 Sudeste 0 -- -- 63
2020-01-18 02:00:00 12.1 6 Sudeste 11 Sur 0 -- -- 75
2020-01-18 01:00:00 12.4 8 Sur 11 Sur 0 -- -- 55
2020-01-18 00:00:00 12.6 7 Sur 14 Sur 0 -- -- 56
2020-01-17 23:00:00 13.1 7 Sur 11 Sur 0 -- -- 57
2020-01-17 22:00:00 12.7 7 Sur 10 Sur 0 -- -- 50
2020-01-17 21:00:00 13 4 Sur 7 Sudeste 0 -- -- 55
2020-01-17 20:00:00 14.4 5 Sur 8 Este 0 -- -- 54
2020-01-17 19:00:00 15.4 5 Sudeste 13 Sur 0 -- -- 59
2020-01-17 18:00:00 16.5 6 Sudeste 18 Sudeste 0 -- -- 60
2020-01-17 17:00:00 17.3 11 Este 23 Sudeste 0 -- -- 58
2020-01-17 16:00:00 18.2 13 Este 23 Este 0 -- -- 53
2020-01-17 15:00:00 18.8 11 Sudeste 27 Este 0 -- -- 50
2020-01-17 14:00:00 18.1 13 Este 28 Este 0 -- -- 55
2020-01-17 13:00:00 18.1 14 Este 30 Sudeste 0 -- -- 52
2020-01-17 12:00:00 18.6 10 Sudeste 26 Este 0 -- -- 41
2020-01-17 11:00:00 17.5 13 Sudeste 24 Sudeste 0 -- -- 55
2020-01-17 10:00:00 16.8 8 Sudeste 22 Este 0 -- -- 50
2020-01-17 09:00:00 15.1 7 Sudeste 17 Sudeste 0 -- -- 54
2020-01-17 08:00:00 11.8 6 Sur 12 Sur 0 -- -- 61
2020-01-17 07:00:00 10.5 10 Sur 16 Sudoeste 0 -- -- 60
2020-01-17 06:00:00 10.9 9 Sur 11 Sur 0 -- -- 61
2020-01-17 05:00:00 11.4 6 Sur 10 Sur 0 -- -- 68
2020-01-17 04:00:00 11.7 9 Sur 13 Sur 0 -- -- 46
2020-01-17 03:00:00 12.4 8 Sur 16 Sur 0 -- -- 44
2020-01-17 02:00:00 12.3 11 Sur 18 Sur 0 -- -- 44
2020-01-17 01:00:00 12.5 10 Sur 17 Sur 0 -- -- 45
2020-01-17 00:00:00 12.9 10 Sur 15 Sur 0 -- -- 43
2020-01-16 23:00:00 13 9 Sur 15 Sur 0 -- -- 40
2020-01-16 22:00:00 13.3 9 Sur 15 Sur 0 -- -- 40
2020-01-16 21:00:00 13.9 7 Sur 13 Sur 0 -- -- 40
2020-01-16 20:00:00 14.5 7 Sur 13 Sur 0 -- -- 42
2020-01-16 19:00:00 15.5 5 Sur 8 Sudeste 0 -- -- 45
2020-01-16 18:00:00 17.5 6 Sudeste 12 Este 0 -- -- 37
2020-01-16 17:00:00 18.5 6 Este 15 Este 0 -- -- 46
2020-01-16 16:00:00 18.8 9 Este 20 Este 0 -- -- 45
2020-01-16 15:00:00 18.8 12 Este 23 Este 0 -- -- 50
2020-01-16 14:00:00 19.3 12 Este 23 Este 0 -- -- 49
2020-01-16 13:00:00 18.9 12 Este 21 Sudeste 0 -- -- 57
2020-01-16 12:00:00 18.9 13 Este 22 Este 0 -- -- 54
2020-01-16 11:00:00 18 4 Este -- -- -- -- -- 63
2020-01-16 10:00:00 16.8 8 Este 14 Sur 0 -- -- 67
2020-01-16 09:00:00 13.1 9 Sur 15 Sur 0 -- -- 56
2020-01-16 08:00:00 12.1 5 Sur 11 Sur 0 -- -- 71
2020-01-16 07:00:00 11.7 8 Sur 14 Sur 0 -- -- 43
2020-01-16 06:00:00 11.9 9 Sur 17 Sur 0 -- -- 42
2020-01-16 05:00:00 11.6 11 Sur 17 Sur 0 -- -- 47
2020-01-16 04:00:00 11.8 5 Sudoeste 15 Sur 0 -- -- 71
2020-01-16 03:00:00 11.7 10 Sur 14 Sur 0 -- -- 53
2020-01-16 02:00:00 11.7 8 Sur 15 Sur 0 -- -- 45
2020-01-16 01:00:00 12.8 6 Sur 11 Sur 0 -- -- 38
2020-01-16 00:00:00 13.5 5 Sudeste 10 Sudeste 0 -- -- 34
2020-01-15 23:00:00 14.2 5 Sur 13 Sudeste 0 -- -- 33
2020-01-15 22:00:00 13.6 6 Sur 13 Sur 0 -- -- 35
2020-01-15 21:00:00 14.1 8 Sudoeste 11 Sudoeste 0 -- -- 39
2020-01-15 20:00:00 14.3 5 Sur 10 Sudeste 0 -- -- 41
2020-01-15 19:00:00 15.4 5 Sur 16 Sudeste 0 -- -- 54
2020-01-15 18:00:00 16.6 8 Sudeste 19 Este 0 -- -- 54
2020-01-15 17:00:00 17.6 9 Sudeste 23 Sudeste 0 -- -- 53
2020-01-15 16:00:00 17.8 14 Este 33 Este 0 -- -- 56
2020-01-15 15:00:00 18.3 14 Este 32 Este 0 -- -- 52
2020-01-15 14:00:00 18.9 16 Este 31 Este 0 -- -- 44
2020-01-15 13:00:00 18.7 15 Este 30 Este 0 -- -- 53
2020-01-15 12:00:00 18.7 13 Sudeste 30 Este 0 -- -- 55
2020-01-15 11:00:00 18.5 9 Este 21 Este 0 -- -- 52
2020-01-15 10:00:00 16.9 8 Sudeste 15 Sudeste 0 -- -- 53
2020-01-15 09:00:00 13.3 5 Sur 13 Sudoeste 0 -- -- 55
2020-01-15 08:00:00 12 9 Sur 17 Sur 0 -- -- 43
2020-01-15 07:00:00 12 9 Sur 17 Sur 0 -- -- 45
2020-01-15 06:00:00 12 7 Sur 18 Sur 0 -- -- 44
2020-01-15 05:00:00 12.1 8 Sur 15 Sur 0 -- -- 45
2020-01-15 04:00:00 12.3 6 Sur 16 Sur 0 -- -- 41
2020-01-15 03:00:00 12.1 7 Sur 13 Sudoeste 0 -- -- 49
2020-01-15 02:00:00 12.2 5 Sur 18 Sur 0 -- -- 51
2020-01-15 01:00:00 12.8 11 Sur 20 Sudoeste 0 -- -- 56
2020-01-15 00:00:00 13.1 10 Sur 16 Sur 0 -- -- 51
2020-01-14 23:00:00 13 6 Sudoeste 15 Sur 0 -- -- 48
2020-01-14 22:00:00 13 7 Sur 13 Sur 0 -- -- 54
2020-01-14 21:00:00 13.7 10 Sur 17 Sur 0 -- -- 55
2020-01-14 20:00:00 14.4 8 Sur 16 Sudeste 0 -- -- 55
2020-01-14 19:00:00 16 9 Sur 18 Sur 0 -- -- 51
2020-01-14 18:00:00 17.5 7 Sudeste 22 Sur 0 -- -- 41
2020-01-14 17:00:00 19.2 5 Noroeste 28 Sudeste 0 -- -- 49
2020-01-14 16:00:00 19.8 9 Sudeste 28 Sudeste 0 -- -- 34
2020-01-14 15:00:00 19.6 14 Sudeste 37 Este 0 -- -- 41
2020-01-14 14:00:00 20.2 18 Sudeste 35 Este 0 -- -- 28
2020-01-14 13:00:00 19.9 15 Sudeste 34 Sur 0 -- -- 30
2020-01-14 12:00:00 19.5 17 Sudeste 31 Sudeste 0 -- -- 34
2020-01-14 11:00:00 18.6 18 Sudeste 33 Sudeste 0 -- -- 40
2020-01-14 10:00:00 17.9 10 Sudeste 30 Sudeste 0 -- -- 40
2020-01-14 09:00:00 16 10 Sudeste 26 Sudeste 0 -- -- 59
2020-01-14 08:00:00 15 13 Sudeste 23 Sudeste 0 -- -- 55
2020-01-14 07:00:00 14.6 8 Sudeste 21 Sudeste 0 -- -- 67
2020-01-14 06:00:00 14.6 9 Sudeste 17 Sudeste 0 -- -- 71
2020-01-14 05:00:00 14.8 9 Sudeste 17 Sudeste 0 -- -- 61
2020-01-14 04:00:00 14.9 7 Sudeste 12 Sudeste 0 -- -- 46
2020-01-14 03:00:00 14.9 9 Sudeste 17 Sudeste 0 -- -- 62
2020-01-14 02:00:00 14.7 9 Sudeste 18 Sur 0 -- -- 80
2020-01-14 01:00:00 14.6 9 Sudeste 15 Sudeste 0 -- -- 72
2020-01-14 00:00:00 14.2 8 Sudoeste 13 Sur 0 -- -- 38
2020-01-13 23:00:00 14.3 5 Sudeste 15 Sur 0 -- -- 40
2020-01-13 22:00:00 14.4 10 Sur 16 Sur 0 -- -- 48
2020-01-13 21:00:00 14.8 9 Sur 15 Sudoeste 0 -- -- 54
2020-01-13 20:00:00 15.7 8 Sur 19 Sur 0 -- -- 51
2020-01-13 19:00:00 17.4 10 Sudeste 26 Sudeste 0 -- -- 32
2020-01-13 18:00:00 17.9 13 Sudeste 33 Sudeste 0 -- -- 37
2020-01-13 17:00:00 18.6 13 Sudeste 35 Sudeste 0 -- -- 45
2020-01-13 16:00:00 19.3 19 Sudeste 42 Sudeste 0 -- -- 44
2020-01-13 15:00:00 19.5 18 Sudeste 34 Nordeste 0 -- -- 52
2020-01-13 14:00:00 20.1 17 Sudeste 45 Sudeste 0 -- -- 43
2020-01-13 13:00:00 19.5 15 Sudeste 32 Sur 0 -- -- 59
2020-01-13 12:00:00 18.6 13 Sudeste 28 Este 0 -- -- 67
2020-01-13 11:00:00 17.7 12 Este 22 Este 0 -- -- 68
2020-01-13 10:00:00 16.7 10 Sudeste 18 Este 0 -- -- 70
2020-01-13 09:00:00 14.9 6 Sudeste 12 Sudeste 0 -- -- 79
2020-01-13 08:00:00 13.2 6 Sur 10 Sudeste 0 -- -- 84
2020-01-13 07:00:00 13.2 5 Sur 11 Sur 0 -- -- 83
2020-01-13 06:00:00 12.3 6 Sur 10 Sur 0 -- -- 83
2020-01-13 05:00:00 11.9 6 Sur 13 Sur 0 -- -- 80
2020-01-13 04:00:00 12.1 8 Sur 14 Sur 0 -- -- 81
2020-01-13 03:00:00 12 8 Sur 14 Sur 0 -- -- 80
2020-01-13 02:00:00 12.5 9 Sur 16 Sudoeste 0 -- -- 77
2020-01-13 01:00:00 12.4 7 Sur 13 Sur 0 -- -- 73
2020-01-13 00:00:00 12.5 7 Sur 16 Sudoeste 0 -- -- 71
2020-01-12 23:00:00 12.7 9 Sur 17 Sur 0 -- -- 65
2020-01-12 22:00:00 12.8 9 Sur 14 Sur -- -- -- 65
2020-01-12 21:00:00 12.9 9 Sur 15 Sur 0 -- -- 66
2020-01-12 20:00:00 13.7 4 Sur 8 Este 0 -- -- 69
2020-01-12 19:00:00 14.2 3 Este 5 Este 0 -- -- 68
2020-01-12 18:00:00 15.9 4 Este 17 Nordeste 0 -- -- 63
2020-01-12 17:00:00 17 8 Este 18 Sudeste 0 -- -- 67
2020-01-12 16:00:00 17.1 9 Este 26 Este 0 -- -- 65
2020-01-12 15:00:00 17.6 12 Este 27 Este 0 -- -- 64
2020-01-12 14:00:00 17.4 14 Este 26 Este 0 -- -- 65
2020-01-12 13:00:00 17.4 9 Este 24 Este 0 -- -- 66
2020-01-12 12:00:00 16.4 8 Este 15 Este 0 -- -- 70
2020-01-12 11:00:00 16.4 10 Nordeste 22 Este 0 -- -- 66
2020-01-12 10:00:00 15.4 4 Nordeste 9 Nordeste 0 -- -- 74
2020-01-12 09:00:00 14.9 0 Calma 8 Nordeste 0 -- -- 74
2020-01-12 08:00:00 15.1 4 Nordeste 14 Nordeste 0 -- -- 72
2020-01-12 07:00:00 15 4 Norte 19 Norte 0 -- -- 69
2020-01-12 06:00:00 14.7 3 Norte 11 Norte 0 -- -- 76
2020-01-12 05:00:00 14.7 3 Noroeste 9 Norte 0 -- -- 77
2020-01-12 04:00:00 14.9 7 Norte 14 Nordeste 0 -- -- 77
2020-01-12 03:00:00 14.9 6 Noroeste 23 Norte 0 -- -- 76
2020-01-12 02:00:00 15.2 8 Norte 20 Norte 0 -- -- 74
2020-01-12 01:00:00 15.2 6 Noroeste 19 Norte 0 -- -- 77
2020-01-12 00:00:00 15.2 10 Noroeste 18 Noroeste 0 -- -- 75
2020-01-11 23:00:00 15 5 Noroeste 18 Noroeste 0 -- -- 75
2020-01-11 22:00:00 14.7 8 Noroeste 18 Noroeste 0 -- -- 85
2020-01-11 21:00:00 14.5 8 Noroeste 19 Norte 0 -- -- 80
2020-01-11 20:00:00 15.1 8 Noroeste 21 Norte 0 -- -- 75
2020-01-11 19:00:00 15.2 9 Noroeste 24 Noroeste 0 -- -- 70
2020-01-11 18:00:00 15.4 10 Norte 24 Noroeste 0 -- -- 74
2020-01-11 17:00:00 15.4 14 Norte 24 Noroeste 0 -- -- 79
2020-01-11 16:00:00 15.6 11 Noroeste 23 Norte 0 -- -- 78
2020-01-11 15:00:00 16.4 14 Norte 30 Norte 0 -- -- 76
2020-01-11 14:00:00 16.7 13 Norte 22 Noroeste 0 -- -- 67
2020-01-11 13:00:00 16 8 Noroeste 18 Noroeste 0 -- -- 76
2020-01-11 12:00:00 16.2 8 Noroeste 18 Noroeste 0 -- -- 73
2020-01-11 11:00:00 16.1 10 Norte 18 Norte 0 -- -- 70
2020-01-11 10:00:00 15.5 7 Noroeste 14 Noroeste 0 -- -- 75
2020-01-11 09:00:00 14.9 5 Oeste 14 Noroeste 0 -- -- 75
2020-01-11 08:00:00 15 7 Noroeste 17 Noroeste 0 -- -- 72
2020-01-11 07:00:00 15 6 Noroeste 21 Norte 0 -- -- 73
2020-01-11 06:00:00 15 8 Noroeste 21 Norte 0 -- -- 74
2020-01-11 05:00:00 15.1 8 Noroeste 17 Norte 0 -- -- 76
2020-01-11 04:00:00 15.1 6 Norte 18 Norte 0 -- -- 78
2020-01-11 03:00:00 15.2 6 Noroeste 14 Norte 0 -- -- 85
2020-01-11 02:00:00 15.1 5 Noroeste 14 Norte 0 -- -- 85
2020-01-11 01:00:00 15.3 6 Noroeste 19 Noroeste 0.2 -- -- 90
2020-01-11 00:00:00 15.1 3 Noroeste 16 Noroeste 0.2 -- -- 90
2020-01-10 23:00:00 15.5 4 Noroeste 18 Noroeste 0 -- -- 81
2020-01-10 22:00:00 16.1 6 Noroeste 18 Noroeste 0 -- -- 80
2020-01-10 21:00:00 16 10 Norte 19 Noroeste 0 -- -- 82
2020-01-10 20:00:00 16.2 3 Norte 12 Noroeste 0 -- -- 74
2020-01-10 19:00:00 16.3 4 Noroeste 19 Noroeste 0 -- -- 68
2020-01-10 18:00:00 16.5 11 Norte 23 Norte 0 -- -- 74
2020-01-10 17:00:00 16.7 11 Norte 20 Noroeste 0 -- -- 75
2020-01-10 16:00:00 16.5 5 Nordeste 22 Nordeste 0 -- -- 80
2020-01-10 15:00:00 17.2 11 Nordeste 22 Noroeste 0 -- -- 73
2020-01-10 14:00:00 17.8 12 Nordeste 23 Nordeste 0 -- -- 73
2020-01-10 13:00:00 17.3 12 Norte 23 Noroeste 0.2 -- -- 78
2020-01-10 12:00:00 16.9 12 Nordeste 26 Nordeste 0 -- -- 77
2020-01-10 11:00:00 16.2 9 Norte 21 Nordeste 0.2 -- -- 85
2020-01-10 10:00:00 15.9 4 Norte 21 Nordeste 0 -- -- 92
2020-01-10 09:00:00 15.2 10 Noroeste 28 Noroeste 0.4 -- -- 93
2020-01-10 08:00:00 14.8 5 Sudoeste 11 Sudoeste 0 -- -- 91
2020-01-10 07:00:00 15.1 8 Noroeste 15 Norte 0.2 -- -- 90
2020-01-10 06:00:00 15.6 6 Noroeste 17 Noroeste 0 -- -- 82
2020-01-10 05:00:00 15.3 6 Noroeste 17 Norte 0.2 -- -- 83
2020-01-10 04:00:00 15.6 5 Noroeste 22 Noroeste 0 -- -- 80
2020-01-10 03:00:00 15.3 9 Noroeste 22 Noroeste 0 -- -- 82
2020-01-10 02:00:00 15.2 6 Noroeste 16 Oeste 0 -- -- 85
2020-01-10 01:00:00 15.6 6 Noroeste 18 Noroeste 0 -- -- 73
2020-01-10 00:00:00 15.6 8 Noroeste 18 Noroeste 0 -- -- 71
2020-01-09 23:00:00 15.7 11 Noroeste 26 Noroeste 0 -- -- 68
2020-01-09 22:00:00 15.6 10 Noroeste 27 Noroeste 0 -- -- 69
2020-01-09 21:00:00 15.8 12 Noroeste 26 Norte 0 -- -- 71
2020-01-09 20:00:00 15.7 12 Norte 26 Norte 0.2 -- -- 74
2020-01-09 19:00:00 15.9 15 Noroeste 26 Norte 0 -- -- 73
2020-01-09 18:00:00 16.3 13 Noroeste 24 Noroeste 0 -- -- 74
2020-01-09 17:00:00 16.7 12 Noroeste 27 Norte 0 -- -- 71
2020-01-09 16:00:00 17.2 14 Noroeste 27 Noroeste 0 -- -- 67
2020-01-09 15:00:00 17.9 15 Noroeste 27 Norte 0 -- -- 68
2020-01-09 14:00:00 18.2 13 Norte 29 Norte 0 -- -- 63
2020-01-09 13:00:00 17.5 14 Noroeste 27 Norte 0 -- -- 65
2020-01-09 12:00:00 17.2 15 Norte 28 Norte 0 -- -- 64
2020-01-09 11:00:00 16.5 12 Norte 22 Norte 0 -- -- 65
2020-01-09 10:00:00 16.1 8 Norte 16 Norte 0 -- -- 73
2020-01-09 09:00:00 15.4 8 Noroeste 18 Norte 0 -- -- 72
2020-01-09 08:00:00 14.9 6 Noroeste 16 Noroeste 0 -- -- 76
2020-01-09 07:00:00 14.8 4 Noroeste 17 Norte 0 -- -- 77
2020-01-09 06:00:00 14.1 7 Noroeste 13 Noroeste 0 -- -- 82
2020-01-09 05:00:00 14.1 3 Noroeste 11 Norte 0 -- -- 81
2020-01-09 04:00:00 13.9 3 Noroeste 9 Noroeste 0 -- -- 80
2020-01-09 03:00:00 13.7 3 Oeste 8 Oeste 0 -- -- 79
2020-01-09 02:00:00 14.5 2 Noroeste 8 Norte 0 -- -- 78
2020-01-09 01:00:00 14.8 5 Norte 13 Norte 0 -- -- 77
2020-01-09 00:00:00 14.9 5 Norte 18 Norte 0 -- -- 75
2020-01-08 23:00:00 15.2 6 Norte 14 Noroeste 0 -- -- 76
2020-01-08 22:00:00 15.1 7 Noroeste 15 Norte 0 -- -- 74
2020-01-08 21:00:00 15.2 7 Norte 22 Norte 0 -- -- 73
2020-01-08 20:00:00 15.3 9 Norte 18 Norte 0 -- -- 73
2020-01-08 19:00:00 15.6 6 Norte 19 Nordeste 0 -- -- 73
2020-01-08 18:00:00 16 8 Norte 22 Nordeste 0 -- -- 73
2020-01-08 17:00:00 16.5 6 Norte 19 Nordeste 0 -- -- 71
2020-01-08 16:00:00 16.8 7 Nordeste 19 Nordeste 0 -- -- 68
2020-01-08 15:00:00 16.9 9 Nordeste 22 Nordeste 0 -- -- 68
2020-01-08 14:00:00 17.2 10 Nordeste 26 Nordeste 0 -- -- 64
2020-01-08 13:00:00 17.2 11 Nordeste 22 Nordeste 0 -- -- 66
2020-01-08 12:00:00 16.9 10 Nordeste 24 Este 0 -- -- 65
2020-01-08 11:00:00 17.2 14 Este 26 Nordeste 0 -- -- 69
2020-01-08 10:00:00 16.1 10 Nordeste 21 Nordeste 0 -- -- 72
2020-01-08 09:00:00 15.1 3 Nordeste 13 Norte 0 -- -- 78
2020-01-08 08:00:00 14.8 5 Nordeste 15 Noroeste 0 -- -- 79
2020-01-08 07:00:00 14.4 4 Noroeste 12 Nordeste 0 -- -- 81
2020-01-08 06:00:00 14.3 2 Noroeste 15 Nordeste 0 -- -- 78
2020-01-08 05:00:00 14.7 5 Norte 14 Nordeste 0 -- -- 77
2020-01-08 04:00:00 14.6 4 Norte 15 Nordeste 0 -- -- 78
2020-01-08 03:00:00 14.5 4 Norte 15 Nordeste 0 -- -- 80
2020-01-08 02:00:00 14.6 4 Nordeste 12 Norte 0 -- -- 79
2020-01-08 01:00:00 14.4 3 Norte 9 Norte 0 -- -- 81
2020-01-08 00:00:00 14.4 4 Noroeste 10 Norte 0 -- -- 80
2020-01-07 23:00:00 15.3 4 Norte 14 Nordeste 0 -- -- 77
2020-01-07 22:00:00 15.5 8 Nordeste 21 Nordeste 0 -- -- 77
2020-01-07 21:00:00 15.7 8 Nordeste 20 Nordeste 0 -- -- 78
2020-01-07 20:00:00 16 10 Nordeste 23 Nordeste 0 -- -- 80
2020-01-07 19:00:00 15.9 6 Nordeste 15 Nordeste 0 -- -- 78
2020-01-07 18:00:00 16.4 7 Nordeste 14 Nordeste 0 -- -- 74
2020-01-07 17:00:00 17.1 4 Nordeste 14 Este 0 -- -- 69
2020-01-07 16:00:00 16.8 7 Nordeste 17 Nordeste 0 -- -- 69
2020-01-07 15:00:00 17.2 6 Nordeste 18 Nordeste 0 -- -- 68
2020-01-07 14:00:00 17 8 Nordeste 21 Este 0 -- -- 69
2020-01-07 13:00:00 17 10 Nordeste 20 Este 0 -- -- 69
2020-01-07 12:00:00 16.5 12 Nordeste 20 Nordeste 0 -- -- 70
2020-01-07 11:00:00 16.5 11 Nordeste 21 Nordeste 0 -- -- 71
2020-01-07 10:00:00 16 11 Nordeste 25 Nordeste 0 -- -- 71
2020-01-07 09:00:00 15.3 12 Nordeste 27 Nordeste 0 -- -- 75
2020-01-07 08:00:00 14.6 9 Nordeste 24 Nordeste 0 -- -- 76
2020-01-07 07:00:00 14.6 10 Nordeste 22 Nordeste 0 -- -- 75
2020-01-07 06:00:00 14.8 10 Nordeste 21 Nordeste 0 -- -- 78
2020-01-07 05:00:00 14.6 4 Nordeste 14 Nordeste 0 -- -- 80
2020-01-07 04:00:00 14.5 4 Norte 15 Norte 0 -- -- 78
2020-01-07 03:00:00 14.4 6 Norte 15 Norte 0 -- -- 84
2020-01-07 02:00:00 14.4 3 Norte 25 Nordeste 0.2 -- -- 86
2020-01-07 01:00:00 15.2 12 Norte 35 Nordeste 0.6 -- -- 82
2020-01-07 00:00:00 15.3 10 Norte 22 Norte 0 -- -- 74
2020-01-06 23:00:00 15.3 8 Norte 23 Norte 0 -- -- 76
2020-01-06 22:00:00 15.3 8 Norte 33 Norte 0 -- -- 71
2020-01-06 21:00:00 15.3 13 Norte 36 Norte 0 -- -- 78
2020-01-06 20:00:00 15.8 18 Noroeste 34 Norte 0 -- -- 78
2020-01-06 19:00:00 15.5 18 Noroeste 33 Noroeste 0 -- -- 74
2020-01-06 18:00:00 15.8 18 Noroeste 29 Noroeste 0 -- -- 73
2020-01-06 17:00:00 16.7 14 Noroeste 27 Noroeste 0 -- -- 70
2020-01-06 16:00:00 17.1 15 Noroeste 28 Norte 0 -- -- 68
2020-01-06 15:00:00 17.3 15 Noroeste 29 Noroeste 0 -- -- 68
2020-01-06 14:00:00 17.9 15 Noroeste 27 Noroeste 0 -- -- 68
2020-01-06 13:00:00 17.4 15 Noroeste 29 Noroeste 0 -- -- 68
2020-01-06 12:00:00 17.3 13 Noroeste 28 Noroeste 0 -- -- 64
2020-01-06 11:00:00 17.5 14 Noroeste 23 Noroeste 0 -- -- 61
2020-01-06 10:00:00 16.4 15 Noroeste 24 Noroeste 0 -- -- 71
2020-01-06 09:00:00 16 9 Norte 21 Norte 0 -- -- 70